User: anonymous   Login
Location: Franzen
(48.6167°N, 15.3833°E)
Time: 17:35:47
(UTC+00:00)
Language:

Altair - Orbit

View from above orbital plane
View from above orbital plane
View from above satellite
View from above satellite

Ground track
Ground track

The orbit data is extracted from the following two-line orbital elements,

1 00050U 60009B   21207.33940819 -.00000098  00000-0 -10468-3 0  9990
2 00050  47.2328 307.7448 0113404  89.6151 271.7632 12.20116152719533
Epoch (UTC): 26 July 2021 08:08:44
Eccentricity: 0.0113404
inclination: 47.2328°
perigee height: 1501 km
apogee height: 1682 km
right ascension of ascending node: 307.7448°
argument of perigee: 89.6151°
revolutions per day: 12.20116152
mean anomaly at epoch: 271.7632°
orbit number at epoch: 71953

The dashed part of the orbit path shows where the satellite is in the earth's shadow,  

DLR